www.pogodaiklimat.ru

Погода и климат >> Архив погоды >> Россия >> Ставропольский край >> Красногвардейское


ПОГОДА в Красногвардейском

  • Прогноз погоды в Красногвардейском
  • Монитор погоды в Красногвардейском

АРХИВ ПОГОДЫ в Красногвардейском

Время (UTC), дата Ветер
(напр.,м/с)
 
Видим.   Явления Облачность Т
(С)
Тd
(С)
f
(%)
Тe
(С)
Тes
(С)
Комфортность P
(гПа)
Po
(гПа)
Тmin
(С)
Tmax
(С)
R
(мм)
R24
(мм)
S
(см)
15 11.04 В 2 20 км 10/3 600 м
[Cb cap Ac und]
+19.2 +10.1 56 +21 +21 комфорт 1010.9 1003.8 +23.1
18 11.04 ЮЗ 5
{12}
20 км 10/4 600 м
[Cb cap Ac As]
+14.6 +8.1 65 +13 +13 1013.1 1005.9
21 11.04 З 2 20 км 10/0 2000 м
[Ac As]
+12.6 +9.0 79 +12 +12 1011.9 1004.7
00 12.04 Ю 1 20 км 4/4 600 м
[Sc]
+12.0 +8.9 81 +12 +12 1012.1 1004.9
03 12.04 штиль 0 20 км 10/8 600 м
[Cb cap Ac und]
+11.9 +8.7 81 +11 +11 1013.2 1005.9 +11.8
06 12.04 З 2 20 км 4/0
[Ci fib]
+16.9 +8.5 58 +17 +24 1013.3 1006.1
09 12.04 З 3 20 км 8/4 600 м
[Cu med, cong Ac lent Ci fib]
+19.6 +9.3 51 +21 +26 комфорт 1013.2 1006.1
12 12.04 З 4-10
{10}
20 км {ливн. осадки} 9/8 600 м
[Cb cap Ac cast Ci fib]
+18.6 +7.8 49 +19 +20 1013.3 1006.1
15 12.04 З 3
{11}
20 км 6/1 600 м
[Cu med, cong Ci fib]
+17.2 +8.1 55 +17 +18 1013.7 1006.5 +19.6 3
18 12.04 ЮЗ 2 20 км ясно +12.4 +7.6 73 +12 +12 1015.3 1008.0
21 12.04 штиль 0 20 км ясно +10.1 +6.8 80 +9 +9 1015.6 1008.3
00 13.04 В 1 20 км 6/0 2000 м
[Ac cast]
+7.1 +5.8 91 +6 +6 1015.7 1008.3
03 13.04 штиль 0 20 км в посл. час ливневой дождь 10/10 600 м
[Cb cap]
+10.2 +8.8 91 +9 +9 1016.3 1009.0 +6.6 0.5
06 13.04 Ю 3 20 км {ливн. осадки} 10/10 600 м
[St]
+12.3 +10.0 86 +11 +11 1016.8 1009.5
09 13.04 ЮЗ 5
{10}
20 км 10/10 600 м
[Cb cap]
+14.7 +8.7 67 +13 +13 1016.2 1009.0
12 13.04 З 3
{10}
10 км слаб. ливневой дождь 10/10 600 м
[Cb cap]
+13.9 +10.1 78 +13 +13 1016.6 1009.3
15 13.04 10 км слаб. ливневой дождь н/о +13.2 +11.2 88 +12 +12 1016.5 1009.2 +16.0 3
18 13.04 ЮЗ 2 20 км {ливн. осадки} 10/10 600 м
[Sc]
+12.5 +10.5 88 +12 +12 1016.7 1009.4
21 13.04 ЮЗ 2 20 км 8/6 600 м
[Cb cap Ac cuf]
+11.8 +9.9 88 +11 +11 1016.4 1009.1
00 14.04 штиль 0 4000 м дымка 6/0 2000 м
[Ac cast]
+9.0 +8.1 94 +8 +8 1015.5 1008.1
03 14.04 В 1 4000 м дымка 10/3 1000 м
[Sc Ac cast Cc]
+7.7 +7.3 97 +7 +7 1014.9 1007.5 +7.4 0.3
06 14.04 В 2 20 км 10/0 2000 м
[Ac lent Ci fib]
+14.0 +10.5 79 +14 +18 1014.4 1007.1
09 14.04 В 2 20 км 10/0 2000 м
[Ac und]
+18.2 +10.4 60 +19 +23 1013.1 1005.9
12 14.04 В 1 20 км 10/3 600 м
[Cu med, cong Ac lent]
+20.0 +9.8 52 +22 +24 комфорт 1011.3 1004.3
15 14.04 В 2 20 км 10/5 600 м
[Cu med, cong Ac As]
+18.5 +10.8 61 +19 +20 1010.4 1003.3 +20.5
18 14.04 В 1 20 км 10/6 1000 м
[Sc Ac trans]
+15.1 +11.8 81 +16 +16 1009.9 1002.8
21 14.04 СВ 1 20 км 10/3 600 м
[Sc Ac trans]
+13.2 +10.5 84 +13 +13 1008.8 1001.6
00 15.04 В 1 20 км 3/3 1000 м
[Sc]
+11.8 +9.0 83 +12 +12 1008.5 1001.3
03 15.04 В 2 20 км 10/5 600 м
[Sc Ac trans]
+11.3 +8.2 81 +10 +10 1008.2 1001.0 +10.9
06 15.04 штиль 0 20 км 10/10 600 м
[Cb cap]
+12.5 +8.7 78 +12 +12 1011.3 1004.1
09 15.04 З 1 20 км {ливн. осадки} 10/8 600 м
[Cb cap Ac As]
+14.3 +11.8 85 +15 +16 1012.9 1005.7
12 15.04 СЗ 1 20 км {ливн. осадки} 10/9 600 м
[Cb cap Ci fib]
+17.0 +10.8 67 +18 +19 1013.2 1006.0
15 15.04 В 2 20 км 4/3 600 м
[Cu med, cong Ci sp]
+16.8 +10.5 66 +17 +18 1012.9 1005.7 +19.0 2
18 15.04 штиль 0 20 км 10/0 2000 м
[Ac und]
+12.3 +10.1 86 +12 +12 1013.1 1005.8
21 15.04 штиль 0 10 км 10/0 2000 м
[Ac As]
+10.5 +9.7 95 +10 +10 1013.2 1005.9
00 16.04 штиль 0 10 км 10/0 2000 м
[Ac As]
+10.4 +9.6 95 +10 +10 1012.4 1005.1
03 16.04 З 1 4000 м дымка 10/0 2000 м
[Ac As]
+10.6 +10.1 97 +10 +10 1012.7 1005.4 +9.8
06 16.04 З 2 4000 м слаб. дождь 10/10 600 м
[Frnb]
+11.4 +10.7 95 +10 +10 1013.3 1006.0
09 16.04 СЗ 3 20 км {дождь} 10/10 600 м
[Sc]
+12.7 +10.2 85 +11 +11 1013.3 1006.0
12 16.04 СЗ 2 20 км {дождь} 10/10 600 м
[Cb cap]
+13.9 +9.5 75 +13 +13 1012.8 1005.5
15 16.04 штиль 0 20 км 10/0 2000 м
[Ac As]
+13.8 +9.6 76 +13 +13 1012.7 1005.4 +15.0 4
18 16.04 З 1 20 км 10/0 2000 м
[As op]
+11.3 +9.7 90 +11 +11 1012.6 1005.3
21 16.04 З 1 20 км 10/0 2000 м
[As op]
+11.6 +10.3 92 +11 +11 1011.7 1004.5
00 17.04 З 1 4000 м дымка 10/0 2000 м
[As op]
+10.7 +9.9 95 +10 +10 1010.7 1003.5
03 17.04 З 2 2000 м слаб. морось 10/0 2000 м
[As op]
+10.7 +10.2 97 +9 +9 1009.8 1002.6 +10.7 0.0
06 17.04 С 1 10 км в посл. час морось 10/10 600 м
[St]
+11.1 +10.7 97 +11 +11 1010.2 1003.0 +10.7
09 17.04 СВ 3 10 км слаб. дождь {морось} 10/10 600 м
[Frnb Ns]
+9.5 +8.2 92 +7 +7 1011.3 1004.1
12 17.04 СВ 4 4000 м слаб. дождь {морось} 10/10 600 м
[Frnb Ns]
+6.6 +5.7 94 +3 +3 1014.1 1006.7
15 17.04 СВ 3
{12}
4000 м слаб. дождь 10/10 600 м
[Frnb Ns]
+5.3 +4.3 93 +2 +2 1016.6 1009.2 +11.1 2
18 17.04 СВ 3
{10}
4000 м слаб. дождь 10/10 600 м
[Frnb Ns]
+4.8 +3.6 92 +1 +1 1018.8 1011.4
21 17.04 СВ 3-10
{11}
4000 м слаб. дождь 10/10 600 м
[Frnb Ns]
+3.6 +2.2 91 -0 -0 1020.6 1013.0
00 18.04 СВ 1
{10}
4000 м слаб. снег {дождь} 10/10 600 м
[Frnb Ns]
+0.6 +0.2 97 -2 -2 1021.7 1014.1
03 18.04 штиль 0 20 км {снег, дождь} 10/0 2000 м
[Ac und]
+1.9 +1.0 94 +1 +1 1022.2 1014.6 +0.5 5
06 18.04 СВ 3 20 км {снег, дождь} 10/0 2000 м
[Ac cast Cc]
+3.8 -3.6 58 +1 +5 1023.5 1015.9
09 18.04 В 3 20 км 10/3 600 м
[Cu med, cong Ac As]
+7.0 -1.7 54 +5 +7 1023.8 1016.3
12 18.04 В 4
{10}
20 км 10/0 2000 м
[Ac As Ci sp]
+9.4 -5.0 36 +7 +12 1023.0 1015.6

 

Местоположение метеостанции Красногвардейское (Ставропольский край, Россия): широта 45.83 долгота 41.48 высота над уровнем моря 60 м.

В архиве по умолчанию представлена погода в Красногвардейском за последнюю неделю. Архивные данные за месяц целиком и за предыдущие месяцы, начиная с января 2011 года, Вы можете получить, выбрав интересующий диапазон дат из раскрывающегося списка и нажав кнопку "Ввод!".


*Определитесь, кто Вы:
робот инопланетянин человек

Внимание! Время в таблицах - всемирное. Для получения местного времени необходимо прибавить поправку, которая равна 3 ч.

Смотрите также архив погоды в соседних городах и на ближайших метеорологических станциях:

Погода в Новоалександровске (Ставропольский край, Россия) (43 км)
Погода в Городовиковске (Калмыкия, Россия) (46 км)
Погода в Изобильном (Ставропольский край, Россия) (54 км)
Погода в Белой Глине (Краснодарский край, Россия) (54 км)
Погода в Гиганте (Ростовская область, Россия) (77 км)
Погода в Кропоткине (Краснодарский край, Россия) (84 км)
Погода в Ставрополе (Ставропольский край, Россия) (92 км)
Погода в Армавире (Краснодарский край, Россия) (99 км)
Погода в Тихорецке (Краснодарский край, Россия) (109 км)
Погода в Светлограде (Ставропольский край, Россия) (119 км)

Пояснения к столбцам:

Ветер - указаны скорость ветра в м/с - средняя за 10 мин, порывы в срок и между сроками (в фигурных скобках) и направление, откуда дует ветер: С - северный, СВ - северо-восточный, В - восточный, ЮВ - юго-восточный, Ю - южный, ЮЗ - юго-западный, З - западный, СЗ - северо-западный.
Видимость - горизонтальная дальность видимости в метрах или километрах. При видимости от 1 до 10 км при отсутствии осадков обычно наблюдается дымка, при ухудшении видимости до 1 км и менее - туман. В сухую погоду видимость может ухудшаться дымом, пылью или мглою.
Явления - указаны атмосферные явления, наблюдавшиеся в срок или в последний час перед сроком; фигурными скобками обозначены явления, наблюдавшиеся между сроками (за 1-3 часа до срока); квадратными скобками обозначены град или гололедные отложения с указанием их диаметра в мм.
Облачность - указаны через наклонную черту общая и нижняя облачность в баллах и высота нижней границы облаков в метрах; квадратными скобками обозначены формы облаков: Ci - перистые, Cs - перисто-слоистые, Cc - перисто-кучевые, Ac - высококучевые, As - высокослоистые, Sc - слоисто-кучевые, Ns - слоисто-дождевые, Cu - кучевые, Cb - кучево-дождевые. Подробнее классификацию облаков см. в Атласе облаков (PDF).
T - Температура воздуха - температура, измеренная на высоте 2 м над землей.
Td - Температура точки росы - температура, при понижении до которой содержащийся в воздухе водяной пар достигнет насыщения.
f - Относительная влажность воздуха - влажноcть воздуха, измеренная на высоте 2 м над землей.
Te - Эффективная температура - температура, которую ощущает одетый по сезону человек в тени. Характеристика душности погоды. При расчете учитывается влияние влажности воздуха и скорости ветра на теплоощущения человека.
Tes - Эффективная температура на солнце - температура, которую ощущает человек, с поправкой на солнечный нагрев. Характеристика знойности погоды. Зависит от высоты солнца над горизонтом, облачности и скорости ветра. Ночью, в пасмурную погоду, а также при ветре 12 м/с и более поправка равна нулю.
P - Атмосферное давление - приведенное к уровню моря атмосферное давление.
Po - Атмосферное давление - измеренное на уровне метеостанции атмосферное давление.
Tmin - Минимальная температура - минимум температуры воздуха на высоте 2 м над землей.
Tmax - Максимальная температура - максимум температуры воздуха на высоте 2 м над землей.
R - Количество осадков - Количество выпавших осадков за период времени, мм. При наведении курсора мыши на число - период времени, за который выпало указанное количество осадков.
R24 - Количество осадков - Количество выпавших осадков за 24 часа, мм.
S - Снежный покров - Высота снежного покрова, см. При наведении курсора мыши на число - состояние снежного покрова и степень покрытия местности в баллах.